Location: New Plymouth
(39.0670°S, 174.0830°E)
Time: 05:13:55
(UTC+13:00)

NOAA 19 - Pass Details

Date: 27 August 2019
Orbit: 841 x 861 km, 99.2° (Epoch: 22 October)

Event Time Altitude Azimuth Distance (km) Brightness Sun altitude
Rises 05:26:53 0° 358° (N) 3,385 8.3 -17.8°
Reaches altitude 10° 05:29:19 10° 352° (N) 2,459 7.5 -17.4°
Maximum altitude 05:34:32 45° 280° (W) 1,146 5.4 -16.4°
Drops below altitude 10° 05:39:49 10° 207° (SSW) 2,496 7.4 -15.3°
Sets 05:42:20 0° 200° (SSW) 3,442 8.2 -14.8°
